Flag for Canada Weather past 2 weeks in Red Deer, Alberta, Canada

Now
16 °F

Ice fog.


Feels Like: 10 °F
Forecast: 16 / 30 °F
Wind: 3 mph from South

Location: Red Deer

Current Time: Jan 29, 2015 at 11:36:34 PM

Latest Report: Jan 29, 2015 at 11:00 PM


Visibility: 1 mi

Pressure: 30.35 "Hg

Humidity: 93%

Dew point: 14 °F

Location of Red DeerLocation

Historic Weather in Red Deer — Graph

°F

Red Deer temperature yesterday

Maximum temperature yesterday: 36 °F (at 1:00 PM)
Minimum temperature yesterday: 21 °F (at 9:00 PM)
Average temperature yesterday: 28 °F

Past Weeks' High & Low Weather Summary

 TemperatureHumidityPressure
High46 °F (Jan 25, 3:00 PM)100% (Jan 27, 1:00 AM)30.47 "Hg (Jan 27, 1:00 AM)
Low7 °F (Jan 21, 4:00 AM)41% (Jan 16, 6:00 PM)29.51 "Hg (Jan 16, 8:00 AM)
Average28 °F75%30.00 "Hg
* Reported Jan 14 10:00 PM — Jan 29 10:00 PM, Red Deer, Weather by CustomWeather, © 2014

Note: Actual official high and low records may vary slightly from our data, if they occured in-between our weather recording intervals... More about our weather records

Advertising

Red Deer weather history for previous 24 hours

 ConditionsComfort  
Time TempWeatherWind HumidityBarometerVisibility
10:00 PM
Jan 29
14 °FIce fog.No wind92%30.36 "Hg3 mi
9:00 PM16 °FPassing clouds.2 mph93%30.35 "Hg7 mi
8:00 PM16 °FPassing clouds.6 mph93%30.34 "Hg10 mi
7:00 PM19 °FPassing clouds.3 mph86%30.34 "Hg10 mi
6:00 PM23 °FPassing clouds.No wind86%30.32 "Hg10 mi
5:00 PM27 °FPassing clouds.No wind86%30.31 "Hg15 mi
4:00 PM28 °FPassing clouds.3 mph80%30.31 "Hg10 mi
3:00 PM28 °FPassing clouds.2 mph86%30.31 "Hg8 mi
2:00 PM27 °FIce fog.5 mph93%30.31 "Hg6 mi
1:00 PM25 °FIce fog.7 mph100%30.32 "Hg5 mi
12:00 PM25 °FIce fog.7 mph93%30.36 "Hg1 mi
11:00 AM23 °FIce fog.5 mph100%30.37 "Hg1 mi
10:00 AM23 °FIce fog.8 mph93%30.37 "Hg1 mi
9:00 AM19 °FIce fog.3 mph93%30.40 "Hg1 mi
8:00 AM18 °FIce fog.No wind93%30.40 "Hg2 mi
7:00 AM19 °FPassing clouds.5 mph93%30.41 "Hg8 mi
6:00 AM19 °FPassing clouds.7 mph93%30.42 "Hg15 mi
5:00 AM19 °FPassing clouds.3 mph93%30.42 "Hg15 mi
4:00 AM18 °FPassing clouds.3 mph93%30.43 "Hg15 mi
3:00 AM19 °FPassing clouds.No wind100%30.45 "Hg15 mi
2:00 AM19 °FPassing clouds.3 mph93%30.45 "Hg15 mi
1:00 AM21 °FPassing clouds.3 mph93%30.46 "Hg15 mi
12:00 AM18 °FPassing clouds.3 mph93%30.47 "Hg15 mi
11:00 PM
Jan 28
23 °FPassing clouds.3 mph93%30.47 "Hg15 mi
Weather by CustomWeather, © 2014

See weather overviewHow to use our weather pages